Tracking 19644 objects as of 24-Apr-2019
HD Live streaming from Space Station
objects crossing your sky now

THORAD AGENA D DEB

Track THORAD AGENA D DEB now!
10-day predictions


NORAD ID: 4613
Int'l Code: 1970-025R
Perigee: 765.3 km
Apogee: 923.0 km
Inclination: 98.8 °
Period: 101.7 minutes
Semi major axis: 7215 km
RCS: 0.158 m2 (medium)
Launch date: April 8, 1970
Source: United States (US)
Launch site: AIR FORCE WESTERN TEST RANGE (AFWTR)

Note: This is SATELLITE DEBRIS
aabbcc
Your satellite tracking list
Your tracking list is empty




NASA's NSSDC Master Catalog

Two Line Element Set (TLE):
1  4613U 70025R   19113.61218205 -.00000274 +00000-0 -10936-3 0  9995
2  4613 098.8256 157.4629 0109233 112.7372 248.5390 14.16559548490775
Source of the keplerian elements: AFSPC